Regional Weather Roundup
Issued by NWS

Home | Current Version | Previous Version | Text Only | Print | Product List | Glossary On
Versions: 1 2 3 4 5 6 7 8 9 10 11 12 13 14 15 16 17 18 19 20 21 22 23 24 25 26 27 28 29 30 31 32 33 34 35 36 37 38 39 40 41 42 43 44 45 46 47 48 49 50
000
ASUS43 KLOT 222204
RWRIL

ILLINOIS REGIONAL WEATHER ROUNDUP
NATIONAL WEATHER SERVICE CHICAGO/ROMEOVILLE IL
500 PM CDT MON MAY 22 2017

NOTE: "FAIR" INDICATES FEW OR NO CLOUDS BELOW 12,000 FEET WITH NO
SIGNIFICANT WEATHER AND/OR OBSTRUCTIONS TO VISIBILITY.

* THESE STATIONS ARE NOT UNDER NWS QUALITY CONTROL. THEY ALSO MAY NOT
  REPORT WEATHER SUCH AS PRECIPITATION OR FOG.

ILZ001-002-007-009-015-016-024-222300-
NORTHWEST ILLINOIS

CITY           SKY/WX    TMP DP  RH WIND       PRES   REMARKS
MOLINE         CLOUDY    66  54  65 SW14G25   29.90F
STERLING*      CLOUDY    68  54  60 SW17G26   29.90F
$$

ILZ003-004-008-010-011-017-018-222300-
NORTH CENTRAL ILLINOIS

CITY           SKY/WX    TMP DP  RH WIND       PRES   REMARKS
ROCKFORD       CLOUDY    70  49  47 SW18G29   29.89F
FREEPORT*      CLOUDY    66  54  65 SW22G30   29.88F
ROCHELLE*      CLOUDY    69  54  58 SW25G32   29.91F
DE KALB*       CLOUDY    67  52  60 SW23G29   29.92S
$$

ILZ005-006-012>014-019>023-222300-
NORTHEAST ILLINOIS

CITY           SKY/WX    TMP DP  RH WIND       PRES   REMARKS
CHICAGO-OHARE  CLOUDY    71  40  32 SW18G25   29.89F
CHICAGO-MIDWAY PTSUNNY   74  42  31 SW22G28   29.90F
AURORA         CLOUDY    69  52  54 SW21G33   29.92R
LANSING*       PTSUNNY   73  48  41 SW17G23   29.92F
WAUKEGAN       CLOUDY    67  49  52 SW8       29.88F
DUPAGE AIRPORT CLOUDY    67  51  56 SW16G36   29.91R
WHEELING       CLOUDY    71  43  36 SW13G20   29.90F
MORRIS*        CLOUDY    69  49  49 W17G25    29.93R
ROMEOVILLE*    PTSUNNY   71  48  43 SW18G26   29.92S
NORTHERLY ISL    N/A     73  37  27 SW16        N/A
$$

LMZ740>746-222300-
SOUTHERN LAKE MICHIGAN

STATION/POSITION SKY/WX   TEMP    WIND        PRES    VSBY  WAVE
                          AIR SEA DIR/SP/G                  HT/PER
                          (F)     (DEG/KT/KT) (MB)    (MI)  (FT/S)
SOUTHERN BUOY              51 45  170/ 12/ 12 1013.6          1/ 3
WILMETTE HARBOR            65 54                N/A           1/ 2
HARRISON CRIB              72     220/ 18/ 21   N/A
BURNHAM HARBOR             73     180/ 12/ 18   N/A
CALUMET HARBOR             73     210/ 13/ 21 1012.5F
BURNS HARBOR               71     190/ 18/ 24 1013.5F
MICHIGAN CITY              70     190/ 17/ 20   N/A
MICHIGAN CITY 6N           64 54  200/ 10/ 12   N/A           1/ 3
ST. JOSEPH                 61 56  190/  2/  4 1013.8F         1
$$

ILZ025>027-034>036-040-047-049-050-058-095>099-222300-
WEST-CENTRAL ILLINOIS

CITY           SKY/WX    TMP DP  RH WIND       PRES   REMARKS
QUINCY         LGT RAIN  60  57  89 CALM      29.98F
GALESBURG*     RAIN      59  55  89 SW12      29.95
MACOMB*        LGT RAIN  58  56  92 SW13      30.01F
$$

ILZ028>032-037-038-041>044-048-051>054-059>061-222300-
CENTRAL ILLINOIS

CITY           SKY/WX    TMP DP  RH WIND       PRES   REMARKS
BLOOMINGTON    CLOUDY    69  47  45 SW15G22   29.99R
DECATUR        PTSUNNY   71  46  40 SW18G24   29.99F
PEORIA         LGT RAIN  61  58  90 SW13      30.00R
LACON*         RAIN      65  54  68 SW14G25   29.96R
LINCOLN*       CLOUDY    71  50  47 SW7       29.98R
SPRINGFIELD    PTSUNNY   73  49  42 S17G24    29.98F
TAYLORVILLE    NOT AVBL
$$

ILZ033-039-045-046-055>057-062-063-222300-
EAST-CENTRAL ILLINOIS

CITY           SKY/WX    TMP DP  RH WIND       PRES   REMARKS
CHAMPAIGN      MOSUNNY   72  44  36 S20       30.00F
MATTOON        SUNNY     70  45  40 SW10      30.01F
$$

ILZ079-100>102-222300-
SOUTHWEST ILLINOIS

CITY           SKY/WX    TMP DP  RH WIND       PRES   REMARKS
ALTON          PTSUNNY   73  45  35 S9        29.99F
BELLEVILLE     MOSUNNY   74  47  38 SW6       30.00F
CAHOKIA*       SUNNY     76  42  29 SW6       29.98F
SPARTA*        SUNNY     72  43  35 S3        30.01S
$$

ILZ064>066-069>071-074>076-080>082-084>086-088>090-092>094-222300-
SOUTH-CENTRAL ILLINOIS

CITY           SKY/WX    TMP DP  RH WIND       PRES   REMARKS
CARBONDALE     SUNNY     74  46  36 S5        29.99F
CAIRO*         MOSUNNY   74  44  34 SW6       30.00F
EFFINGHAM*     SUNNY     73  48  41 SE5       30.02F
MARION         MOSUNNY   75  50  41 S6        30.02F
MT. VERNON       N/A     75  48  38 VRB6      30.00F
CENTRALIA*     MOSUNNY   74  49  41 SE7       30.00F
SALEM*         MOSUNNY   74  46  37 S7        30.00F
$$

ILZ067-068-072-073-078-083-087-091-222300-
SOUTHEAST ILLINOIS

CITY           SKY/WX    TMP DP  RH WIND       PRES   REMARKS
LAWRENCEVILLE  SUNNY     75  43  31 S10       30.01F
FLORA*         SUNNY     74  48  39 S9        30.01F
FAIRFIELD*     SUNNY     74  42  32 S6        29.99F
HARRISBURG*    SUNNY     75  51  41 E6        29.99F
ROBINSON*      SUNNY     73  41  31 SW9       30.02F
CARMI*         SUNNY     75  49  40 S8        30.01F
$$

ABBREVIATIONS USED IN REMARKS
   TC - TEMPERATURE IN CELSIUS
  WCI - WIND CHILL INDEX
   HX - HEAT INDEX
  VSB - VISIBILITY
$$





USA.gov is the U.S. government's official web portal to all federal, state and local government web resources and services.